Location: Smyrna_Hopewell
(35.6500°N, 81.0330°W)
Time: 04:33:13
(UTC-04:00)

Cosmos 2221 - Visible Passes

Search period start: 05 May 2016 00:00
Search period end: 15 May 2016 00:00
Orbit: 595 x 617 km, 82.5° (Epoch: 04 May)

Date Brightness Start Highest point End Pass type
(mag) Time Alt. Az. Time Alt. Az. Time Alt. Az.
05 May 3.5 03:45:25 10° N 03:48:18 41° NNW 03:48:18 41° NNW visible
06 May 5.4 02:23:09 10° NE 02:24:21 12° ENE 02:24:21 12° ENE visible
06 May 4.0 03:58:51 10° NNW 04:01:13 28° NW 04:01:13 28° NW visible
07 May 5.0 02:35:14 10° NNE 02:37:16 19° NE 02:37:16 19° NE visible
07 May 4.5 04:12:36 10° NW 04:14:07 18° NW 04:14:07 18° NW visible
08 May 4.6 02:47:57 10° N 02:50:13 26° NNE 02:50:13 26° NNE visible
08 May 5.0 04:26:54 10° NW 04:27:04 11° NW 04:27:04 11° NW visible
09 May 4.4 03:01:00 10° N 03:03:11 29° N 03:03:11 29° N visible
10 May 4.4 03:14:17 10° NNW 03:16:11 25° NNW 03:16:11 25° NNW visible
11 May 5.4 01:51:27 10° NE 01:52:20 13° NE 01:52:20 13° NE visible
11 May 4.7 03:27:48 10° NNW 03:29:12 19° NW 03:29:12 19° NW visible
12 May 5.1 02:03:50 10° NNE 02:05:22 18° NE 02:05:22 18° NE visible
12 May 5.0 03:41:41 10° NW 03:42:14 12° NW 03:42:14 12° NW visible
13 May 4.8 02:16:41 10° N 02:18:25 22° NNE 02:18:25 22° NNE visible
14 May 4.7 02:29:47 10° N 02:31:27 23° N 02:31:27 23° N visible
